Time,TemperatureF,DewpointF,PressureIn,WindDirection,WindDirectionDegrees,WindSpeedMPH,WindSpeedGustMPH,Humidity,HourlyPrecipIn,Conditions,Clouds,dailyrainin,SoftwareType,DateUTC
2013-02-21 00:00:00,26.1,19.3,30.32,ESE,111,1.0,2.0,75,0.00,,,0.00,Wunderground v.1.15,2013-02-21 06:00:00,
2013-02-21 00:06:00,26.1,19.3,30.31,East,90,2.0,4.0,75,0.00,,,0.00,Wunderground v.1.15,2013-02-21 06:06:00,
2013-02-21 00:12:00,26.0,19.2,30.30,ENE,71,5.0,5.0,75,0.00,,,0.00,Wunderground v.1.15,2013-02-21 06:12:00,
2013-02-21 00:17:00,25.9,19.1,30.30,ENE,73,4.0,5.0,75,0.00,,,0.00,Wunderground v.1.15,2013-02-21 06:17:00,
2013-02-21 00:23:00,25.8,19.0,30.30,East,91,2.0,4.0,75,0.00,,,0.00,Wunderground v.1.15,2013-02-21 06:23:00,
2013-02-21 00:29:00,25.6,19.1,30.30,NE,53,4.0,4.0,76,0.00,,,0.00,Wunderground v.1.15,2013-02-21 06:29:00,
2013-02-21 00:35:00,25.5,19.0,30.30,NE,39,3.0,7.0,76,0.00,,,0.00,Wunderground v.1.15,2013-02-21 06:35:00,
2013-02-21 00:41:00,25.3,18.8,30.30,ENE,70,3.0,3.0,76,0.00,,,0.00,Wunderground v.1.15,2013-02-21 06:41:00,
2013-02-21 00:47:00,25.2,19.0,30.29,NE,48,0.0,4.0,77,0.00,,,0.00,Wunderground v.1.15,2013-02-21 06:47:00,
2013-02-21 00:52:00,25.1,18.6,30.29,NE,38,2.0,4.0,76,0.00,,,0.00,Wunderground v.1.15,2013-02-21 06:52:00,
2013-02-21 00:58:00,25.1,18.9,30.30,East,94,4.0,4.0,77,0.00,,,0.00,Wunderground v.1.15,2013-02-21 06:58:00,
2013-02-21 01:03:00,25.2,19.0,30.30,East,98,2.0,3.0,77,0.00,,,0.00,Wunderground v.1.15,2013-02-21 07:03:00,
2013-02-21 01:09:00,25.3,18.8,30.29,ESE,111,1.0,6.0,76,0.00,,,0.00,Wunderground v.1.15,2013-02-21 07:09:00,
2013-02-21 01:15:00,25.4,18.9,30.30,SE,131,1.0,6.0,76,0.00,,,0.00,Wunderground v.1.15,2013-02-21 07:15:00,
2013-02-21 01:20:00,25.5,19.0,30.30,East,92,2.0,2.0,76,0.00,,,0.00,Wunderground v.1.15,2013-02-21 07:20:00,
2013-02-21 01:26:00,25.5,19.0,30.30,East,84,2.0,4.0,76,0.00,,,0.00,Wunderground v.1.15,2013-02-21 07:26:00,
2013-02-21 01:32:00,25.4,18.9,30.29,East,97,2.0,3.0,76,0.00,,,0.00,Wunderground v.1.15,2013-02-21 07:32:00,
2013-02-21 01:38:00,25.3,18.8,30.29,ESE,102,3.0,4.0,76,0.00,,,0.00,Wunderground v.1.15,2013-02-21 07:38:00,
2013-02-21 01:43:00,25.3,19.1,30.29,ENE,59,1.0,2.0,77,0.00,,,0.00,Wunderground v.1.15,2013-02-21 07:43:00,
2013-02-21 01:49:00,25.3,18.8,30.30,East,101,2.0,2.0,76,0.00,,,0.00,Wunderground v.1.15,2013-02-21 07:49:00,
2013-02-21 01:55:00,25.4,18.6,30.30,ESE,110,4.0,4.0,75,0.00,,,0.00,Wunderground v.1.15,2013-02-21 07:55:00,
2013-02-21 02:00:00,25.4,18.3,30.29,East,87,3.0,4.0,74,0.00,,,0.00,Wunderground v.1.15,2013-02-21 08:00:00,
2013-02-21 02:05:00,25.5,18.4,30.30,East,94,2.0,6.0,74,0.00,,,0.00,Wunderground v.1.15,2013-02-21 08:05:00,
2013-02-21 02:10:00,25.5,18.4,30.29,East,84,3.0,5.0,74,0.00,,,0.00,Wunderground v.1.15,2013-02-21 08:10:00,
2013-02-21 02:15:00,25.5,18.4,30.29,ENE,68,2.0,9.0,74,0.00,,,0.00,Wunderground v.1.15,2013-02-21 08:15:00,
2013-02-21 02:20:00,25.5,18.4,30.29,East,84,3.0,5.0,74,0.00,,,0.00,Wunderground v.1.15,2013-02-21 08:20:00,
2013-02-21 02:25:00,25.6,18.5,30.29,ESE,108,0.0,5.0,74,0.00,,,0.00,Wunderground v.1.15,2013-02-21 08:25:00,
2013-02-21 02:30:00,25.6,18.5,30.29,ESE,111,1.0,2.0,74,0.00,,,0.00,Wunderground v.1.15,2013-02-21 08:30:00,
2013-02-21 02:35:00,25.6,18.5,30.30,ESE,110,1.0,5.0,74,0.00,,,0.00,Wunderground v.1.15,2013-02-21 08:35:00,
2013-02-21 02:40:00,25.6,18.5,30.29,ESE,104,3.0,3.0,74,0.00,,,0.00,Wunderground v.1.15,2013-02-21 08:40:00,
2013-02-21 02:45:00,25.5,18.4,30.29,ENE,75,0.0,5.0,74,0.00,,,0.00,Wunderground v.1.15,2013-02-21 08:45:00,
2013-02-21 02:50:00,25.5,18.4,30.28,East,98,3.0,7.0,74,0.00,,,0.00,Wunderground v.1.15,2013-02-21 08:50:00,
2013-02-21 02:55:00,25.5,18.4,30.29,ENE,78,3.0,7.0,74,0.00,,,0.00,Wunderground v.1.15,2013-02-21 08:55:00,
2013-02-21 03:00:00,25.4,18.3,30.30,SSE,152,2.0,3.0,74,0.00,,,0.00,Wunderground v.1.15,2013-02-21 09:00:00,
2013-02-21 03:05:00,25.4,18.3,30.29,ESE,103,3.0,4.0,74,0.00,,,0.00,Wunderground v.1.15,2013-02-21 09:05:00,
2013-02-21 03:10:00,25.3,18.2,30.28,ENE,77,2.0,5.0,74,0.00,,,0.00,Wunderground v.1.15,2013-02-21 09:10:00,
2013-02-21 03:15:00,25.4,18.3,30.29,ENE,78,1.0,5.0,74,0.00,,,0.00,Wunderground v.1.15,2013-02-21 09:15:00,
2013-02-21 03:20:00,25.4,18.6,30.29,NE,50,1.0,2.0,75,0.00,,,0.00,Wunderground v.1.15,2013-02-21 09:20:00,
2013-02-21 03:25:00,25.4,18.6,30.29,ESE,109,0.0,4.0,75,0.00,,,0.00,Wunderground v.1.15,2013-02-21 09:25:00,
2013-02-21 03:30:00,25.4,18.6,30.28,ENE,75,7.0,7.0,75,0.00,,,0.00,Wunderground v.1.15,2013-02-21 09:30:00,
2013-02-21 03:35:00,25.4,18.6,30.28,ENE,78,1.0,8.0,75,0.00,,,0.00,Wunderground v.1.15,2013-02-21 09:35:00,
2013-02-21 03:40:00,25.4,18.6,30.27,East,93,3.0,5.0,75,0.00,,,0.00,Wunderground v.1.15,2013-02-21 09:40:00,
2013-02-21 03:45:00,25.4,18.6,30.28,SSE,149,4.0,6.0,75,0.00,,,0.00,Wunderground v.1.15,2013-02-21 09:45:00,
2013-02-21 03:50:00,25.4,18.6,30.28,ENE,57,4.0,4.0,75,0.00,,,0.00,Wunderground v.1.15,2013-02-21 09:50:00,
2013-02-21 03:55:00,25.4,18.9,30.29,East,84,2.0,6.0,76,0.00,,,0.00,Wunderground v.1.15,2013-02-21 09:55:00,
2013-02-21 04:00:00,25.4,18.9,30.28,NE,53,3.0,6.0,76,0.00,,,0.00,Wunderground v.1.15,2013-02-21 10:00:00,
2013-02-21 04:05:00,25.4,18.9,30.28,ESE,102,5.0,8.0,76,0.00,,,0.00,Wunderground v.1.15,2013-02-21 10:05:00,
2013-02-21 04:10:00,25.4,18.9,30.28,ESE,106,3.0,4.0,76,0.00,,,0.00,Wunderground v.1.15,2013-02-21 10:10:00,
2013-02-21 04:15:00,25.4,18.6,30.28,NE,47,4.0,8.0,75,0.00,,,0.00,Wunderground v.1.15,2013-02-21 10:15:00,
2013-02-21 04:20:00,25.4,18.6,30.28,East,96,4.0,7.0,75,0.00,,,0.00,Wunderground v.1.15,2013-02-21 10:20:00,
2013-02-21 04:25:00,25.4,18.6,30.28,ENE,72,2.0,7.0,75,0.00,,,0.00,Wunderground v.1.15,2013-02-21 10:25:00,
2013-02-21 04:30:00,25.4,18.6,30.28,ENE,77,2.0,5.0,75,0.00,,,0.00,Wunderground v.1.15,2013-02-21 10:30:00,
2013-02-21 04:35:00,25.5,18.4,30.29,ESE,112,0.0,5.0,74,0.00,,,0.00,Wunderground v.1.15,2013-02-21 10:35:00,
2013-02-21 04:40:00,25.5,18.7,30.28,East,88,1.0,3.0,75,0.00,,,0.00,Wunderground v.1.15,2013-02-21 10:40:00,
2013-02-21 04:45:00,25.5,18.4,30.28,ESE,110,4.0,7.0,74,0.00,,,0.00,Wunderground v.1.15,2013-02-21 10:45:00,
2013-02-21 04:50:00,25.5,18.4,30.29,East,96,0.0,4.0,74,0.00,,,0.00,Wunderground v.1.15,2013-02-21 10:50:00,
2013-02-21 04:55:00,25.6,18.5,30.29,SE,134,1.0,6.0,74,0.00,,,0.00,Wunderground v.1.15,2013-02-21 10:55:00,
2013-02-21 05:00:00,25.6,18.1,30.30,SE,128,0.0,2.0,73,0.00,,,0.00,Wunderground v.1.15,2013-02-21 11:00:00,
2013-02-21 05:05:00,25.6,18.1,30.30,ESE,108,1.0,4.0,73,0.00,,,0.00,Wunderground v.1.15,2013-02-21 11:05:00,
2013-02-21 05:10:00,25.7,18.6,30.29,ESE,108,3.0,3.0,74,0.00,,,0.00,Wunderground v.1.15,2013-02-21 11:10:00,
2013-02-21 05:15:00,25.6,18.1,30.28,NE,50,1.0,8.0,73,0.00,,,0.00,Wunderground v.1.15,2013-02-21 11:15:00,
2013-02-21 05:20:00,25.6,18.1,30.28,East,96,0.0,4.0,73,0.00,,,0.00,Wunderground v.1.15,2013-02-21 11:20:00,
2013-02-21 05:25:00,25.6,18.1,30.28,East,96,2.0,5.0,73,0.00,,,0.00,Wunderground v.1.15,2013-02-21 11:25:00,
2013-02-21 05:30:00,25.6,18.1,30.26,East,93,3.0,8.0,73,0.00,,,0.00,Wunderground v.1.15,2013-02-21 11:30:00,
2013-02-21 05:35:00,25.6,18.5,30.26,East,96,4.0,10.0,74,0.00,,,0.00,Wunderground v.1.15,2013-02-21 11:35:00,
2013-02-21 05:40:00,25.6,18.5,30.25,ESE,111,5.0,7.0,74,0.00,,,0.00,Wunderground v.1.15,2013-02-21 11:40:00,
2013-02-21 05:46:00,25.5,18.4,30.25,NE,41,4.0,9.0,74,0.00,,,0.00,Wunderground v.1.15,2013-02-21 11:46:00,
2013-02-21 05:50:00,25.5,18.4,30.24,East,88,8.0,10.0,74,0.00,,,0.00,Wunderground v.1.15,2013-02-21 11:50:00,
2013-02-21 05:55:00,25.5,18.4,30.24,NE,40,3.0,10.0,74,0.00,,,0.00,Wunderground v.1.15,2013-02-21 11:55:00,
2013-02-21 06:00:00,25.5,18.4,30.24,East,86,4.0,6.0,74,0.00,,,0.00,Wunderground v.1.15,2013-02-21 12:00:00,
2013-02-21 06:05:00,25.4,18.3,30.24,East,84,3.0,8.0,74,0.00,,,0.00,Wunderground v.1.15,2013-02-21 12:05:00,
2013-02-21 06:10:00,25.4,18.3,30.24,ESE,104,6.0,6.0,74,0.00,,,0.00,Wunderground v.1.15,2013-02-21 12:10:00,
2013-02-21 06:15:00,25.5,18.4,30.25,ENE,72,5.0,7.0,74,0.00,,,0.00,Wunderground v.1.15,2013-02-21 12:15:00,
2013-02-21 06:20:00,25.5,18.4,30.26,ENE,74,2.0,4.0,74,0.00,,,0.00,Wunderground v.1.15,2013-02-21 12:20:00,
2013-02-21 06:25:00,25.5,18.4,30.26,East,92,5.0,6.0,74,0.00,,,0.00,Wunderground v.1.15,2013-02-21 12:25:00,
2013-02-21 06:30:00,25.5,18.4,30.25,East,94,4.0,4.0,74,0.00,,,0.00,Wunderground v.1.15,2013-02-21 12:30:00,
2013-02-21 06:35:00,25.5,18.4,30.24,East,100,4.0,8.0,74,0.00,,,0.00,Wunderground v.1.15,2013-02-21 12:35:00,
2013-02-21 06:40:00,25.4,18.3,30.24,ESE,117,1.0,4.0,74,0.00,,,0.00,Wunderground v.1.15,2013-02-21 12:40:00,
2013-02-21 06:45:00,25.5,18.4,30.24,ESE,119,2.0,10.0,74,0.00,,,0.00,Wunderground v.1.15,2013-02-21 12:45:00,
2013-02-21 06:50:00,25.5,18.4,30.22,ESE,118,3.0,7.0,74,0.00,,,0.00,Wunderground v.1.15,2013-02-21 12:50:00,
2013-02-21 06:55:00,25.6,18.5,30.22,ESE,109,4.0,9.0,74,0.00,,,0.00,Wunderground v.1.15,2013-02-21 12:55:00,
2013-02-21 07:00:00,25.7,18.6,30.22,East,81,4.0,9.0,74,0.00,,,0.00,Wunderground v.1.15,2013-02-21 13:00:00,
2013-02-21 07:05:00,25.9,18.7,30.23,SE,139,2.0,10.0,74,0.00,,,0.00,Wunderground v.1.15,2013-02-21 13:05:00,
2013-02-21 07:11:00,26.1,18.6,30.23,SSE,150,3.0,6.0,73,0.00,,,0.00,Wunderground v.1.15,2013-02-21 13:11:00,
2013-02-21 07:15:00,26.2,18.7,30.23,East,100,6.0,8.0,73,0.00,,,0.00,Wunderground v.1.15,2013-02-21 13:15:00,
2013-02-21 07:20:00,26.5,19.0,30.23,ENE,77,4.0,5.0,73,0.00,,,0.00,Wunderground v.1.15,2013-02-21 13:20:00,
2013-02-21 07:25:00,27.1,19.3,30.24,ENE,75,2.0,9.0,72,0.00,,,0.00,Wunderground v.1.15,2013-02-21 13:25:00,
2013-02-21 07:30:00,27.8,19.6,30.24,ESE,122,4.0,13.0,71,0.00,,,0.00,Wunderground v.1.15,2013-02-21 13:30:00,
2013-02-21 07:36:00,28.2,20.0,30.23,East,98,4.0,13.0,71,0.00,,,0.00,Wunderground v.1.15,2013-02-21 13:36:00,
2013-02-21 07:41:00,28.5,20.0,30.23,ESE,113,12.0,12.0,70,0.00,,,0.00,Wunderground v.1.15,2013-02-21 13:41:00,
2013-02-21 07:46:00,28.8,19.9,30.23,SE,145,3.0,12.0,69,0.00,,,0.00,Wunderground v.1.15,2013-02-21 13:46:00,
2013-02-21 07:50:00,29.1,19.8,30.23,SE,139,3.0,10.0,68,0.00,,,0.00,Wunderground v.1.15,2013-02-21 13:50:00,
2013-02-21 07:55:00,29.2,19.9,30.23,East,94,7.0,11.0,68,0.00,,,0.00,Wunderground v.1.15,2013-02-21 13:55:00,
2013-02-21 08:00:00,29.3,20.0,30.22,ESE,123,2.0,6.0,68,0.00,,,0.00,Wunderground v.1.15,2013-02-21 14:00:00,
2013-02-21 08:05:00,29.3,19.0,30.23,SE,133,5.0,14.0,65,0.00,,,0.00,Wunderground v.1.15,2013-02-21 14:05:00,
2013-02-21 08:10:00,29.4,19.1,30.24,SSE,149,7.0,8.0,65,0.00,,,0.00,Wunderground v.1.15,2013-02-21 14:10:00,
2013-02-21 08:16:00,29.4,18.7,30.24,ESE,122,8.0,14.0,64,0.00,,,0.00,Wunderground v.1.15,2013-02-21 14:16:00,
2013-02-21 08:21:00,29.4,19.1,30.24,East,93,6.0,8.0,65,0.00,,,0.00,Wunderground v.1.15,2013-02-21 14:21:00,
2013-02-21 08:26:00,29.5,18.8,30.23,SE,133,7.0,14.0,64,0.00,,,0.00,Wunderground v.1.15,2013-02-21 14:26:00,
2013-02-21 08:31:00,29.7,19.0,30.23,ESE,113,8.0,16.0,64,0.00,,,0.00,Wunderground v.1.15,2013-02-21 14:31:00,
2013-02-21 08:36:00,30.0,19.3,30.22,SSE,167,2.0,16.0,64,0.00,,,0.00,Wunderground v.1.15,2013-02-21 14:36:00,
2013-02-21 08:41:00,30.5,19.4,30.21,East,98,7.0,13.0,63,0.00,,,0.00,Wunderground v.1.15,2013-02-21 14:41:00,
2013-02-21 08:46:00,30.7,19.6,30.22,ESE,120,7.0,18.0,63,0.00,,,0.00,Wunderground v.1.15,2013-02-21 14:46:00,
2013-02-21 08:51:00,30.8,19.7,30.22,NE,34,7.0,10.0,63,0.00,,,0.00,Wunderground v.1.15,2013-02-21 14:51:00,
2013-02-21 08:56:00,31.0,19.9,30.21,ESE,121,6.0,10.0,63,0.00,,,0.00,Wunderground v.1.15,2013-02-21 14:56:00,
2013-02-21 09:01:00,31.0,19.5,30.21,SE,132,4.0,10.0,62,0.00,,,0.00,Wunderground v.1.15,2013-02-21 15:01:00,
2013-02-21 09:06:00,31.1,19.6,30.20,ESE,110,8.0,16.0,62,0.00,,,0.00,Wunderground v.1.15,2013-02-21 15:06:00,
2013-02-21 09:11:00,31.5,20.0,30.20,ESE,122,5.0,11.0,62,0.00,,,0.00,Wunderground v.1.15,2013-02-21 15:11:00,
2013-02-21 09:16:00,31.6,19.3,30.20,SE,129,4.0,16.0,60,0.00,,,0.00,Wunderground v.1.15,2013-02-21 15:16:00,
2013-02-21 09:21:00,31.7,19.0,30.21,SE,143,6.0,12.0,59,0.00,,,0.00,Wunderground v.1.15,2013-02-21 15:21:00,
2013-02-21 09:26:00,32.1,19.4,30.19,East,101,12.0,16.0,59,0.00,,,0.00,Wunderground v.1.15,2013-02-21 15:26:00,
2013-02-21 09:31:00,32.2,19.5,30.19,ESE,110,10.0,14.0,59,0.00,,,0.00,Wunderground v.1.15,2013-02-21 15:31:00,
2013-02-21 09:36:00,32.4,19.7,30.19,ESE,114,7.0,14.0,59,0.00,,,0.00,Wunderground v.1.15,2013-02-21 15:36:00,
2013-02-21 09:41:00,32.6,19.4,30.18,SE,133,7.0,10.0,58,0.00,,,0.00,Wunderground v.1.15,2013-02-21 15:41:00,
2013-02-21 09:46:00,32.5,19.3,30.17,ESE,112,7.0,15.0,58,0.00,,,0.00,Wunderground v.1.15,2013-02-21 15:46:00,
2013-02-21 09:51:00,32.9,19.7,30.19,East,95,6.0,8.0,58,0.00,,,0.00,Wunderground v.1.15,2013-02-21 15:51:00,
2013-02-21 09:56:00,32.9,19.7,30.19,ESE,120,5.0,15.0,58,0.00,,,0.00,Wunderground v.1.15,2013-02-21 15:56:00,
2013-02-21 10:01:00,32.9,20.5,30.18,East,89,5.0,8.0,60,0.00,,,0.00,Wunderground v.1.15,2013-02-21 16:01:00,
2013-02-21 10:06:00,33.0,20.6,30.18,East,101,7.0,13.0,60,0.00,,,0.00,Wunderground v.1.15,2013-02-21 16:06:00,
2013-02-21 10:11:00,33.2,20.4,30.18,ENE,75,10.0,14.0,59,0.00,,,0.00,Wunderground v.1.15,2013-02-21 16:11:00,
2013-02-21 10:16:00,33.3,20.5,30.17,ESE,102,3.0,14.0,59,0.00,,,0.00,Wunderground v.1.15,2013-02-21 16:16:00,
2013-02-21 10:21:00,33.9,21.1,30.15,East,98,2.0,12.0,59,0.00,,,0.00,Wunderground v.1.15,2013-02-21 16:21:00,
2013-02-21 10:26:00,34.1,20.4,30.15,ESE,113,11.0,14.0,57,0.00,,,0.00,Wunderground v.1.15,2013-02-21 16:26:00,
2013-02-21 10:31:00,34.3,20.2,30.16,East,84,6.0,11.0,56,0.00,,,0.00,Wunderground v.1.15,2013-02-21 16:31:00,
2013-02-21 10:36:00,34.4,20.7,30.17,East,82,3.0,12.0,57,0.00,,,0.00,Wunderground v.1.15,2013-02-21 16:36:00,
2013-02-21 10:41:00,34.4,20.7,30.18,ENE,72,9.0,10.0,57,0.00,,,0.00,Wunderground v.1.15,2013-02-21 16:41:00,
2013-02-21 10:46:00,34.3,20.6,30.18,ENE,73,8.0,11.0,57,0.00,,,0.00,Wunderground v.1.15,2013-02-21 16:46:00,
2013-02-21 10:51:00,34.4,21.1,30.17,ENE,58,9.0,11.0,58,0.00,,,0.00,Wunderground v.1.15,2013-02-21 16:51:00,
2013-02-21 10:56:00,34.4,22.3,30.17,East,100,8.0,11.0,61,0.00,,,0.00,Wunderground v.1.15,2013-02-21 16:56:00,
2013-02-21 11:01:00,34.4,21.5,30.17,NE,51,4.0,5.0,59,0.00,,,0.00,Wunderground v.1.15,2013-02-21 17:01:00,
2013-02-21 11:06:00,34.5,22.4,30.17,NE,53,5.0,7.0,61,0.00,,,0.00,Wunderground v.1.15,2013-02-21 17:06:00,
2013-02-21 11:11:00,34.6,22.5,30.15,East,89,2.0,10.0,61,0.00,,,0.00,Wunderground v.1.15,2013-02-21 17:11:00,
2013-02-21 11:16:00,34.5,23.2,30.14,ENE,71,6.0,13.0,63,0.00,,,0.00,Wunderground v.1.15,2013-02-21 17:16:00,
2013-02-21 11:21:00,34.5,23.2,30.13,SE,134,8.0,12.0,63,0.00,,,0.00,Wunderground v.1.15,2013-02-21 17:21:00,
2013-02-21 11:26:00,34.5,22.0,30.12,ESE,108,7.0,16.0,60,0.00,,,0.00,Wunderground v.1.15,2013-02-21 17:26:00,
2013-02-21 11:31:00,34.5,22.0,30.11,South,190,4.0,13.0,60,0.00,,,0.00,Wunderground v.1.15,2013-02-21 17:31:00,
2013-02-21 11:36:00,34.5,22.0,30.10,NE,54,3.0,13.0,60,0.00,,,0.00,Wunderground v.1.15,2013-02-21 17:36:00,
2013-02-21 11:41:00,34.4,22.3,30.10,East,98,3.0,10.0,61,0.00,,,0.00,Wunderground v.1.15,2013-02-21 17:41:00,
2013-02-21 11:46:00,34.5,22.0,30.08,ENE,73,13.0,14.0,60,0.00,,,0.00,Wunderground v.1.15,2013-02-21 17:46:00,
2013-02-21 11:51:00,34.5,21.2,30.07,East,79,10.0,12.0,58,0.00,,,0.00,Wunderground v.1.15,2013-02-21 17:51:00,
2013-02-21 11:56:00,34.6,20.9,30.09,ESE,102,6.0,14.0,57,0.00,,,0.00,Wunderground v.1.15,2013-02-21 17:56:00,
2013-02-21 12:01:00,34.8,21.1,30.09,ESE,118,9.0,11.0,57,0.00,,,0.00,Wunderground v.1.15,2013-02-21 18:01:00,
2013-02-21 12:06:00,34.9,21.2,30.08,SE,146,1.0,14.0,57,0.00,,,0.00,Wunderground v.1.15,2013-02-21 18:06:00,
2013-02-21 12:11:00,35.1,21.0,30.07,ESE,103,6.0,12.0,56,0.00,,,0.00,Wunderground v.1.15,2013-02-21 18:11:00,
2013-02-21 12:16:00,35.3,21.6,30.07,ESE,120,4.0,12.0,57,0.00,,,0.00,Wunderground v.1.15,2013-02-21 18:16:00,
2013-02-21 12:21:00,35.5,21.3,30.04,SE,146,3.0,12.0,56,0.00,,,0.00,Wunderground v.1.15,2013-02-21 18:21:00,
2013-02-21 12:26:00,35.7,21.5,30.03,ENE,57,12.0,14.0,56,0.00,,,0.00,Wunderground v.1.15,2013-02-21 18:26:00,
2013-02-21 12:31:00,35.9,21.3,30.02,East,89,7.0,11.0,55,0.00,,,0.00,Wunderground v.1.15,2013-02-21 18:31:00,
2013-02-21 12:36:00,36.0,21.4,30.00,East,82,13.0,17.0,55,0.00,,,0.00,Wunderground v.1.15,2013-02-21 18:36:00,
2013-02-21 12:41:00,36.1,21.5,29.99,ESE,108,9.0,12.0,55,0.00,,,0.00,Wunderground v.1.15,2013-02-21 18:41:00,
2013-02-21 12:46:00,36.2,21.6,29.99,ENE,59,4.0,15.0,55,0.00,,,0.00,Wunderground v.1.15,2013-02-21 18:46:00,
2013-02-21 12:51:00,36.3,21.7,29.98,ESE,113,9.0,11.0,55,0.00,,,0.00,Wunderground v.1.15,2013-02-21 18:51:00,
2013-02-21 12:56:00,36.3,21.7,29.97,ESE,105,2.0,18.0,55,0.00,,,0.00,Wunderground v.1.15,2013-02-21 18:56:00,
2013-02-21 13:01:00,36.4,21.8,29.97,East,96,5.0,10.0,55,0.00,,,0.00,Wunderground v.1.15,2013-02-21 19:01:00,
2013-02-21 13:06:00,36.6,21.9,29.98,SE,128,5.0,10.0,55,0.00,,,0.00,Wunderground v.1.15,2013-02-21 19:06:00,
2013-02-21 13:11:00,36.6,21.5,29.98,SE,128,10.0,14.0,54,0.00,,,0.00,Wunderground v.1.15,2013-02-21 19:11:00,
2013-02-21 13:16:00,36.6,21.5,29.99,ESE,115,7.0,14.0,54,0.00,,,0.00,Wunderground v.1.15,2013-02-21 19:16:00,
2013-02-21 13:21:00,36.6,22.4,29.99,South,181,3.0,11.0,56,0.00,,,0.00,Wunderground v.1.15,2013-02-21 19:21:00,
2013-02-21 13:26:00,36.5,23.1,29.99,East,79,7.0,11.0,58,0.00,,,0.00,Wunderground v.1.15,2013-02-21 19:26:00,
2013-02-21 13:31:00,36.4,23.4,29.99,ESE,113,3.0,10.0,59,0.00,,,0.00,Wunderground v.1.15,2013-02-21 19:31:00,
2013-02-21 13:36:00,36.3,23.7,29.99,East,86,2.0,10.0,60,0.00,,,0.00,Wunderground v.1.15,2013-02-21 19:36:00,
2013-02-21 13:41:00,36.1,24.3,30.00,SE,134,6.0,7.0,62,0.00,,,0.01,Wunderground v.1.15,2013-02-21 19:41:00,
2013-02-21 13:46:00,36.0,24.2,30.00,ESE,122,2.0,7.0,62,0.00,,,0.01,Wunderground v.1.15,2013-02-21 19:46:00,
2013-02-21 13:51:00,36.0,24.2,30.01,SSE,150,3.0,9.0,62,0.00,,,0.01,Wunderground v.1.15,2013-02-21 19:51:00,
2013-02-21 13:56:00,35.8,25.2,30.02,SE,132,1.0,9.0,65,0.04,,,0.02,Wunderground v.1.15,2013-02-21 19:56:00,
2013-02-21 14:02:00,35.4,26.6,30.02,South,173,2.0,4.0,70,0.09,,,0.03,Wunderground v.1.15,2013-02-21 20:02:00,
2013-02-21 14:07:00,35.0,26.9,30.03,ESE,112,0.0,4.0,72,0.12,,,0.04,Wunderground v.1.15,2013-02-21 20:07:00,
2013-02-21 14:12:00,34.8,27.0,30.03,ESE,117,0.0,1.0,73,0.17,,,0.06,Wunderground v.1.15,2013-02-21 20:12:00,
2013-02-21 14:17:00,34.6,27.5,30.04,East,96,2.0,2.0,75,0.19,,,0.07,Wunderground v.1.15,2013-02-21 20:17:00,
2013-02-21 14:22:00,34.5,27.7,30.05,East,89,0.0,1.0,76,0.21,,,0.09,Wunderground v.1.15,2013-02-21 20:22:00,
2013-02-21 14:27:00,34.3,28.5,30.05,East,85,1.0,1.0,79,0.12,,,0.10,Wunderground v.1.15,2013-02-21 20:27:00,
2013-02-21 14:32:00,34.1,29.2,30.05,NE,39,2.0,2.0,82,0.14,,,0.11,Wunderground v.1.15,2013-02-21 20:32:00,
2013-02-21 14:37:00,33.9,29.3,30.05,NE,42,1.0,3.0,83,0.25,,,0.13,Wunderground v.1.15,2013-02-21 20:37:00,
2013-02-21 14:42:00,33.7,29.7,30.04,NE,54,4.0,4.0,85,0.24,,,0.15,Wunderground v.1.15,2013-02-21 20:42:00,
2013-02-21 14:47:00,33.5,30.0,30.05,NE,46,0.0,4.0,87,0.21,,,0.17,Wunderground v.1.15,2013-02-21 20:47:00,
2013-02-21 14:52:00,33.3,30.1,30.05,NE,52,2.0,3.0,88,0.27,,,0.19,Wunderground v.1.15,2013-02-21 20:52:00,
2013-02-21 14:57:00,33.2,30.0,30.04,NE,49,7.0,7.0,88,0.30,,,0.21,Wunderground v.1.15,2013-02-21 20:57:00,
2013-02-21 15:02:00,33.0,29.8,30.02,NE,42,3.0,6.0,88,0.19,,,0.23,Wunderground v.1.15,2013-02-21 21:02:00,
2013-02-21 15:07:00,32.9,29.7,30.03,ESE,102,1.0,7.0,88,0.15,,,0.24,Wunderground v.1.15,2013-02-21 21:07:00,
2013-02-21 15:12:00,32.9,29.7,30.03,East,101,5.0,6.0,88,0.12,,,0.25,Wunderground v.1.15,2013-02-21 21:12:00,
2013-02-21 15:17:00,32.9,30.0,30.02,East,87,3.0,8.0,89,0.11,,,0.26,Wunderground v.1.15,2013-02-21 21:17:00,
2013-02-21 15:22:00,32.8,29.9,30.02,ENE,72,4.0,7.0,89,0.10,,,0.27,Wunderground v.1.15,2013-02-21 21:22:00,
2013-02-21 15:27:00,32.7,29.5,30.01,ENE,60,5.0,8.0,88,0.21,,,0.29,Wunderground v.1.15,2013-02-21 21:27:00,
2013-02-21 15:32:00,32.6,29.7,30.01,ENE,66,4.0,6.0,89,0.19,,,0.31,Wunderground v.1.15,2013-02-21 21:32:00,
2013-02-21 15:37:00,32.6,29.7,30.01,NE,53,9.0,9.0,89,0.17,,,0.32,Wunderground v.1.15,2013-02-21 21:37:00,
2013-02-21 15:42:00,32.5,29.6,30.02,East,81,4.0,7.0,89,0.25,,,0.34,Wunderground v.1.15,2013-02-21 21:42:00,
2013-02-21 15:47:00,32.5,29.6,30.01,ESE,104,9.0,12.0,89,0.18,,,0.36,Wunderground v.1.15,2013-02-21 21:47:00,
2013-02-21 15:52:00,32.5,29.9,30.01,East,101,3.0,10.0,90,0.23,,,0.38,Wunderground v.1.15,2013-02-21 21:52:00,
2013-02-21 15:57:00,32.4,29.8,30.00,East,98,4.0,10.0,90,0.23,,,0.40,Wunderground v.1.15,2013-02-21 21:57:00,
2013-02-21 16:02:00,32.3,29.7,30.00,ENE,60,5.0,9.0,90,0.37,,,0.43,Wunderground v.1.15,2013-02-21 22:02:00,
2013-02-21 16:07:00,32.2,29.6,30.01,ENE,77,4.0,9.0,90,0.32,,,0.46,Wunderground v.1.15,2013-02-21 22:07:00,
2013-02-21 16:12:00,32.2,29.9,30.00,NE,41,4.0,9.0,91,0.32,,,0.48,Wunderground v.1.15,2013-02-21 22:12:00,
2013-02-21 16:17:00,32.2,29.9,30.00,East,83,7.0,11.0,91,0.36,,,0.51,Wunderground v.1.15,2013-02-21 22:17:00,
2013-02-21 16:22:00,32.1,29.8,29.97,East,79,7.0,10.0,91,0.28,,,0.54,Wunderground v.1.15,2013-02-21 22:22:00,
2013-02-21 16:27:00,32.1,29.8,29.96,SE,129,9.0,16.0,91,0.44,,,0.57,Wunderground v.1.15,2013-02-21 22:27:00,
2013-02-21 16:32:00,32.1,29.8,29.93,East,101,7.0,16.0,91,0.42,,,0.60,Wunderground v.1.15,2013-02-21 22:32:00,
2013-02-21 16:37:00,32.1,29.8,29.92,ENE,77,8.0,16.0,91,0.26,,,0.63,Wunderground v.1.15,2013-02-21 22:37:00,
2013-02-21 16:42:00,32.2,29.9,29.97,NNE,27,3.0,9.0,91,0.11,,,0.63,Wunderground v.1.15,2013-02-21 22:42:00,
2013-02-21 16:47:00,32.3,30.0,29.97,ENE,63,6.0,13.0,91,0.10,,,0.64,Wunderground v.1.15,2013-02-21 22:47:00,
2013-02-21 16:52:00,32.3,30.0,29.95,NE,46,4.0,13.0,91,0.06,,,0.64,Wunderground v.1.15,2013-02-21 22:52:00,
2013-02-21 16:57:00,32.4,30.1,29.93,ESE,110,11.0,14.0,91,0.04,,,0.64,Wunderground v.1.15,2013-02-21 22:57:00,
2013-02-21 17:02:00,32.3,30.0,29.91,ENE,72,10.0,12.0,91,0.00,,,0.65,Wunderground v.1.15,2013-02-21 23:02:00,
2013-02-21 17:07:00,32.3,30.0,29.90,East,89,6.0,17.0,91,0.00,,,0.65,Wunderground v.1.15,2013-02-21 23:07:00,
2013-02-21 17:12:00,32.4,30.1,29.93,NE,37,5.0,12.0,91,0.06,,,0.66,Wunderground v.1.15,2013-02-21 23:12:00,
2013-02-21 17:17:00,32.5,30.2,29.93,ESE,116,7.0,14.0,91,0.06,,,0.66,Wunderground v.1.15,2013-02-21 23:17:00,
2013-02-21 17:22:00,32.5,30.2,29.90,SE,138,4.0,17.0,91,0.07,,,0.67,Wunderground v.1.15,2013-02-21 23:22:00,
2013-02-21 17:27:00,32.6,30.3,29.90,East,95,7.0,17.0,91,0.29,,,0.69,Wunderground v.1.15,2013-02-21 23:27:00,
2013-02-21 17:32:00,32.7,30.4,29.91,SE,127,9.0,15.0,91,0.11,,,0.69,Wunderground v.1.15,2013-02-21 23:32:00,
2013-02-21 17:37:00,32.7,30.4,29.90,East,86,8.0,17.0,91,0.06,,,0.69,Wunderground v.1.15,2013-02-21 23:37:00,
2013-02-21 17:42:00,32.8,30.5,29.90,ENE,63,4.0,18.0,91,0.04,,,0.69,Wunderground v.1.15,2013-02-21 23:42:00,
2013-02-21 17:47:00,32.9,30.6,29.90,ESE,109,4.0,18.0,91,0.00,,,0.69,Wunderground v.1.15,2013-02-21 23:47:00,
2013-02-21 17:52:00,32.9,30.6,29.92,ESE,116,5.0,8.0,91,0.00,,,0.70,Wunderground v.1.15,2013-02-21 23:52:00,
2013-02-21 17:57:00,32.9,30.6,29.92,ESE,103,7.0,9.0,91,0.10,,,0.71,Wunderground v.1.15,2013-02-21 23:57:00,
2013-02-21 18:02:00,33.1,30.8,29.92,SSE,159,4.0,15.0,91,0.26,,,0.73,Wunderground v.1.15,2013-02-22 00:02:00,
2013-02-21 18:07:00,33.0,30.9,29.93,ENE,77,1.0,15.0,92,0.25,,,0.76,Wunderground v.1.15,2013-02-22 00:07:00,
2013-02-21 18:12:00,33.0,30.9,29.95,NE,36,0.0,5.0,92,0.16,,,0.77,Wunderground v.1.15,2013-02-22 00:12:00,
2013-02-21 18:17:00,33.1,31.0,29.94,SE,133,3.0,8.0,92,0.13,,,0.78,Wunderground v.1.15,2013-02-22 00:17:00,
2013-02-21 18:22:00,33.1,31.0,29.92,SE,133,5.0,10.0,92,0.07,,,0.78,Wunderground v.1.15,2013-02-22 00:22:00,
2013-02-21 18:27:00,33.1,31.0,29.91,ESE,114,6.0,11.0,92,0.06,,,0.79,Wunderground v.1.15,2013-02-22 00:27:00,
2013-02-21 18:32:00,33.1,31.0,29.93,SE,142,5.0,12.0,92,0.06,,,0.79,Wunderground v.1.15,2013-02-22 00:32:00,
2013-02-21 18:37:00,33.1,31.3,29.92,SE,138,3.0,12.0,93,0.38,,,0.82,Wunderground v.1.15,2013-02-22 00:37:00,
2013-02-21 18:42:00,33.2,31.4,29.93,ESE,108,2.0,7.0,93,0.13,,,0.83,Wunderground v.1.15,2013-02-22 00:42:00,
2013-02-21 18:47:00,33.2,31.4,29.91,East,87,8.0,12.0,93,0.12,,,0.84,Wunderground v.1.15,2013-02-22 00:47:00,
2013-02-21 18:52:00,33.2,31.4,29.91,SSE,149,5.0,10.0,93,0.10,,,0.84,Wunderground v.1.15,2013-02-22 00:52:00,
2013-02-21 18:57:00,33.4,31.6,29.92,ESE,103,4.0,10.0,93,0.06,,,0.85,Wunderground v.1.15,2013-02-22 00:57:00,
2013-02-21 19:02:00,33.4,31.6,29.92,SE,131,5.0,9.0,93,0.06,,,0.85,Wunderground v.1.15,2013-02-22 01:02:00,
2013-02-21 19:08:00,33.5,31.7,29.91,SE,138,6.0,10.0,93,0.05,,,0.85,Wunderground v.1.15,2013-02-22 01:08:00,
2013-02-21 19:13:00,33.5,31.4,29.91,SE,143,4.0,7.0,92,0.04,,,0.85,Wunderground v.1.15,2013-02-22 01:13:00,
2013-02-21 19:18:00,33.6,31.5,29.91,ESE,110,6.0,13.0,92,0.28,,,0.88,Wunderground v.1.15,2013-02-22 01:18:00,
2013-02-21 19:23:00,33.6,31.8,29.92,SE,133,1.0,9.0,93,0.11,,,0.88,Wunderground v.1.15,2013-02-22 01:23:00,
2013-02-21 19:28:00,33.6,31.8,29.92,East,93,2.0,10.0,93,0.06,,,0.88,Wunderground v.1.15,2013-02-22 01:28:00,
2013-02-21 19:33:00,33.6,31.8,29.91,SE,134,1.0,7.0,93,0.26,,,0.90,Wunderground v.1.15,2013-02-22 01:33:00,
2013-02-21 19:38:00,33.6,31.8,29.91,SSE,155,2.0,12.0,93,0.16,,,0.91,Wunderground v.1.15,2013-02-22 01:38:00,
2013-02-21 19:43:00,33.6,31.8,29.90,SE,131,5.0,9.0,93,0.13,,,0.92,Wunderground v.1.15,2013-02-22 01:43:00,
2013-02-21 19:48:00,33.6,31.8,29.89,SE,131,7.0,14.0,93,0.12,,,0.93,Wunderground v.1.15,2013-02-22 01:48:00,
2013-02-21 19:53:00,33.7,31.9,29.89,ESE,111,7.0,9.0,93,0.06,,,0.93,Wunderground v.1.15,2013-02-22 01:53:00,
2013-02-21 19:58:00,33.7,32.2,29.88,ESE,120,4.0,13.0,94,0.05,,,0.94,Wunderground v.1.15,2013-02-22 01:58:00,
2013-02-21 20:03:00,33.9,32.4,29.88,ESE,116,4.0,12.0,94,0.05,,,0.94,Wunderground v.1.15,2013-02-22 02:03:00,
2013-02-21 20:08:00,34.0,32.5,29.90,SW,228,3.0,12.0,94,0.05,,,0.94,Wunderground v.1.15,2013-02-22 02:08:00,
2013-02-21 20:13:00,34.1,32.6,29.90,ESE,106,6.0,6.0,94,0.00,,,0.94,Wunderground v.1.15,2013-02-22 02:13:00,
2013-02-21 20:18:00,34.3,32.8,29.90,NE,36,2.0,11.0,94,0.00,,,0.94,Wunderground v.1.15,2013-02-22 02:18:00,
2013-02-21 20:23:00,34.5,33.0,29.91,North,354,2.0,6.0,94,0.00,,,0.94,Wunderground v.1.15,2013-02-22 02:23:00,
2013-02-21 20:28:00,34.6,33.1,29.91,NE,39,6.0,7.0,94,0.00,,,0.94,Wunderground v.1.15,2013-02-22 02:28:00,
2013-02-21 20:33:00,34.6,32.8,29.90,East,98,2.0,6.0,93,0.00,,,0.94,Wunderground v.1.15,2013-02-22 02:33:00,
2013-02-21 20:38:00,34.6,32.8,29.89,NE,41,2.0,6.0,93,0.00,,,0.94,Wunderground v.1.15,2013-02-22 02:38:00,
2013-02-21 20:43:00,34.6,33.1,29.92,NNW,347,3.0,3.0,94,0.00,,,0.94,Wunderground v.1.15,2013-02-22 02:43:00,
2013-02-21 20:48:00,34.7,33.2,29.93,NE,46,2.0,5.0,94,1.08,,,0.97,Wunderground v.1.15,2013-02-22 02:48:00,
2013-02-21 20:53:00,34.7,33.2,29.91,NE,50,1.0,5.0,94,0.17,,,0.99,Wunderground v.1.15,2013-02-22 02:53:00,
2013-02-21 20:58:00,34.7,33.2,29.91,ENE,58,0.0,5.0,94,0.30,,,1.02,Wunderground v.1.15,2013-02-22 02:58:00,
2013-02-21 21:03:00,34.7,33.2,29.90,ESE,120,3.0,4.0,94,0.34,,,1.05,Wunderground v.1.15,2013-02-22 03:03:00,
2013-02-21 21:08:00,34.7,33.2,29.91,South,171,1.0,5.0,94,0.09,,,1.05,Wunderground v.1.15,2013-02-22 03:08:00,
2013-02-21 21:13:00,34.7,33.4,29.90,East,89,3.0,4.0,95,0.06,,,1.06,Wunderground v.1.15,2013-02-22 03:13:00,
2013-02-21 21:18:00,34.7,33.4,29.90,ESE,113,1.0,4.0,95,0.06,,,1.06,Wunderground v.1.15,2013-02-22 03:18:00,
2013-02-21 21:23:00,34.8,33.5,29.89,East,91,1.0,3.0,95,0.07,,,1.07,Wunderground v.1.15,2013-02-22 03:23:00,
2013-02-21 21:28:00,34.9,33.6,29.90,SSE,150,3.0,4.0,95,0.07,,,1.07,Wunderground v.1.15,2013-02-22 03:28:00,
2013-02-21 21:33:00,35.0,33.7,29.89,ESE,122,3.0,5.0,95,0.05,,,1.07,Wunderground v.1.15,2013-02-22 03:33:00,
2013-02-21 21:38:00,35.1,33.8,29.88,SSE,148,2.0,5.0,95,0.00,,,1.07,Wunderground v.1.15,2013-02-22 03:38:00,
2013-02-21 21:43:00,35.3,34.0,29.88,SE,133,1.0,8.0,95,0.00,,,1.07,Wunderground v.1.15,2013-02-22 03:43:00,
2013-02-21 21:48:00,35.5,34.2,29.87,SE,134,6.0,8.0,95,0.00,,,1.07,Wunderground v.1.15,2013-02-22 03:48:00,
2013-02-21 21:53:00,35.8,34.5,29.87,ESE,117,6.0,10.0,95,0.00,,,1.07,Wunderground v.1.15,2013-02-22 03:53:00,
2013-02-21 21:58:00,36.0,34.7,29.86,East,91,5.0,10.0,95,0.00,,,1.07,Wunderground v.1.15,2013-02-22 03:58:00,
2013-02-21 22:03:00,36.2,34.9,29.86,SE,127,7.0,7.0,95,0.00,,,1.07,Wunderground v.1.15,2013-02-22 04:03:00,
2013-02-21 22:08:00,36.3,35.0,29.86,ESE,112,6.0,8.0,95,0.00,,,1.07,Wunderground v.1.15,2013-02-22 04:08:00,
2013-02-21 22:13:00,36.5,35.2,29.86,ENE,77,4.0,5.0,95,0.00,,,1.07,Wunderground v.1.15,2013-02-22 04:13:00,
2013-02-21 22:18:00,36.6,35.3,29.86,ESE,118,0.0,7.0,95,0.00,,,1.07,Wunderground v.1.15,2013-02-22 04:18:00,
2013-02-21 22:23:00,36.7,35.4,29.86,SE,139,4.0,7.0,95,0.00,,,1.07,Wunderground v.1.15,2013-02-22 04:23:00,
2013-02-21 22:28:00,36.8,35.5,29.86,South,171,1.0,7.0,95,0.00,,,1.07,Wunderground v.1.15,2013-02-22 04:28:00,
2013-02-21 22:33:00,36.9,35.6,29.86,SSE,149,2.0,7.0,95,0.00,,,1.07,Wunderground v.1.15,2013-02-22 04:33:00,
2013-02-21 22:38:00,37.0,35.7,29.86,ESE,115,0.0,7.0,95,0.00,,,1.07,Wunderground v.1.15,2013-02-22 04:38:00,
2013-02-21 22:43:00,37.1,35.8,29.86,SSE,155,3.0,5.0,95,0.00,,,1.07,Wunderground v.1.15,2013-02-22 04:43:00,
2013-02-21 22:48:00,37.2,35.9,29.87,SSE,150,4.0,5.0,95,0.00,,,1.07,Wunderground v.1.15,2013-02-22 04:48:00,
2013-02-21 22:53:00,37.2,35.9,29.86,South,184,1.0,3.0,95,0.00,,,1.07,Wunderground v.1.15,2013-02-22 04:53:00,
2013-02-21 22:58:00,37.2,35.9,29.86,SE,146,2.0,3.0,95,0.00,,,1.07,Wunderground v.1.15,2013-02-22 04:58:00,
2013-02-21 23:00:00,37.3,36.0,29.86,SSE,147,1.0,3.0,95,0.00,,,1.07,Wunderground v.1.15,2013-02-22 05:00:00,
2013-02-21 23:05:00,37.4,36.1,29.86,South,172,2.0,7.0,95,0.00,,,1.07,Wunderground v.1.15,2013-02-22 05:05:00,
2013-02-21 23:10:00,37.4,36.1,29.86,SSE,161,3.0,4.0,95,0.00,,,1.07,Wunderground v.1.15,2013-02-22 05:10:00,
2013-02-21 23:15:00,37.5,36.2,29.86,SSW,207,2.0,4.0,95,0.00,,,1.07,Wunderground v.1.15,2013-02-22 05:15:00,
2013-02-21 23:20:00,37.5,36.2,29.85,SE,129,1.0,3.0,95,0.00,,,1.07,Wunderground v.1.15,2013-02-22 05:20:00,
2013-02-21 23:25:00,37.6,36.3,29.85,ESE,120,3.0,5.0,95,0.00,,,1.07,Wunderground v.1.15,2013-02-22 05:25:00,
2013-02-21 23:30:00,37.6,36.3,29.85,WSW,239,0.0,2.0,95,0.00,,,1.07,Wunderground v.1.15,2013-02-22 05:30:00,
2013-02-21 23:35:00,37.6,36.3,29.85,SSE,153,3.0,3.0,95,0.00,,,1.07,Wunderground v.1.15,2013-02-22 05:35:00,
2013-02-21 23:40:00,37.7,36.4,29.85,SSW,193,2.0,4.0,95,0.00,,,1.07,Wunderground v.1.15,2013-02-22 05:40:00,
2013-02-21 23:45:00,37.9,36.6,29.85,WSW,255,1.0,4.0,95,0.00,,,1.07,Wunderground v.1.15,2013-02-22 05:45:00,
2013-02-21 23:50:00,37.9,36.6,29.85,SW,217,0.0,1.0,95,0.00,,,1.07,Wunderground v.1.15,2013-02-22 05:50:00,
2013-02-21 23:55:00,38.0,36.7,29.85,SSE,168,2.0,4.0,95,0.00,,,1.07,Wunderground v.1.15,2013-02-22 05:55:00,